sat.trackr.live / text

‹ back to catalog

STARLINK-32186

NORAD 60412 · 2024-141Q

PAYLOAD ACTIVE UNKNOWN

§ Identity

Operator
Country
US
Launch date
2024-08-10
Launch site
AFETR
Launch vehicle
Mass (kg)
RCS (m²)

Purposes: comms

External: N2YO · Heavens-Above · Gunter

§ Orbital elements

Epoch: 2026-05-24T23:55:21.673632Z

Period
93.85 min
Inclination
53.1620°
Eccentricity
0.0001098
Mean motion
15.34387522 rev/d
Perigee alt
462.0 km
Apogee alt
463.5 km
Semi-major
6,840.9 km
B*
2.3125e-5
RAAN
247.4363°
Arg perigee
102.7025°
Mean anomaly
257.4101°
Rev number
10,121

§ Raw data

STARLINK-321861 60412U 24141Q   26144.99677863  .00000405  00000+0  23125-4 0  99922 60412  53.1620 247.4363 0001098 102.7025 257.4101 15.34387522101211

JSON: /api/v1/satellites/60412 · /tle

For live sub-satellite position, see the globe view (requires WebGL).

§ Visibility from observer

Set your observer location to see the next 7 days of passes ≥ 10°. The values pass through the URL so the page stays shareable.

No JS? Fill the form by hand. The geolocation button needs JavaScript.